Regional Weather Roundup
Issued by NWS Little Rock, AR

Home | Current Version | Previous Version | Text Only | Print | Product List | Glossary Off
Versions: 1 2 3 4 5 6 7 8 9 10 11 12 13 14 15 16 17 18 19 20 21 22 23 24 25 26 27 28 29 30 31 32 33 34 35 36 37 38 39 40 41 42 43 44 45 46 47 48 49 50

881
ASUS44 KLZK 192105
RWRLZK

WEATHER ROUNDUP FOR ARKANSAS
NATIONAL WEATHER SERVICE LITTLE ROCK AR
300 PM CST SUN NOV 19 2017

NOTE: "FAIR" INDICATES FEW OR NO CLOUDS BELOW 12,000 FEET WITH NO
SIGNIFICANT WEATHER AND/OR OBSTRUCTIONS TO VISIBILITY.

ARZ001-003-010-029-192200-
NORTHWEST ARKANSAS

CITY           SKY/WX    TMP DP  RH WIND       PRES   REMARKS
FAYETTEVILLE   SUNNY     54  27  35 NW8       30.23F
FORT SMITH     SUNNY     59  26  28 CALM      30.24F
HARRISON       SUNNY     52  23  32 N10       30.22F
BENTONVILLE    SUNNY     52  26  36 NW3       30.24F
ROGERS         SUNNY     52  26  36 NW3       30.23F
SILOAM SPGS    SUNNY     53  26  35 W6        30.24F
HIGHFILL       SUNNY     53  27  36 VRB6      30.23F
SPRINGDALE     SUNNY     52  27  37 NW7       30.25F
$$

ARZ004-005-016-192200-
NORTH CENTRAL ARKANSAS

CITY           SKY/WX    TMP DP  RH WIND       PRES   REMARKS
BATESVILLE     SUNNY     54  20  26 VRB7G16   30.22F
FLIPPIN        SUNNY     54  21  27 NW9       30.23F
MTN HOME       SUNNY     53  20  27 VRB5      30.20F
$$

ARZ040-041-192200-
WEST CENTRAL ARKANSAS

CITY           SKY/WX    TMP DP  RH WIND       PRES   REMARKS
MENA           SUNNY     61  25  25 N3        30.23F
MOUNT IDA      SUNNY     61  26  26 CALM      30.20F
$$

ARZ009-017-025-026-028-192200-
NORTHEAST ARKANSAS

CITY           SKY/WX    TMP DP  RH WIND       PRES   REMARKS
JONESBORO      SUNNY     52  22  30 VRB6G18   30.21F
NEWPORT        SUNNY     54  20  26 NW10G20   30.22S
WALNUT RIDGE     N/A    N/A N/A N/A MISG        N/A
BLYTHEVILLE    SUNNY     51  27  39 N12G17    30.22F
$$

ARZ022-023-033-042-044-192200-
CENTRAL ARKANSAS

CITY           SKY/WX    TMP DP  RH WIND       PRES   REMARKS
LITTLE ROCK    MOSUNNY   57  22  25 W13       30.22F
N LITTLE ROCK    N/A     57  22  26 N7        30.25F
JACKSONVILLE   SUNNY     58  21  23 NW8       30.21F
SEARCY         SUNNY     57  21  24 NW9       30.22F
HOT SPRINGS    SUNNY     59  22  24 VRB6G16   30.23F
RUSSELLVILLE   SUNNY     60  21  22 NW12      30.21F
CLINTON        FAIR      55  18  22 NW9G17    30.23S
$$

ARZ036-192200-
EAST ARKANSAS

CITY           SKY/WX    TMP DP  RH WIND       PRES   REMARKS
WEST MEMPHIS   SUNNY     50  24  36 N10       30.21S
$$

ARZ050-053-066-070-073-192200-
SOUTHWEST ARKANSAS

CITY           SKY/WX    TMP DP  RH WIND       PRES   REMARKS
ARKADELPHIA    FAIR      61  25  25 N8G16     30.23F
CAMDEN         SUNNY     63  19  19 CALM      30.22F
TEXARKANA      SUNNY     59  27  29 N7        30.24F
EL DORADO      SUNNY     60  28  29 VRB5      30.23F
DE QUEEN       SUNNY     62  26  25 E9        30.21F
$$

ARZ056-057-069-192200-
SOUTHEAST ARKANSAS

CITY           SKY/WX    TMP DP  RH WIND       PRES   REMARKS
PINE BLUFF     SUNNY     57  21  24 NW15      30.23F
STUTTGART      SUNNY     57  20  23 NW13      30.22F
MONTICELLO     SUNNY     59  22  24 VRB6      30.21F

$$






USA.gov is the U.S. government's official web portal to all federal, state and local government web resources and services.